,,PA_Meas_PMT16A,,PR_Meas_QMR101_102,,RH_Meas_QMH101,,SR_Meas_QMS101,,TA_Meas_QMH101,,GenWind,,GenWind,
time,status,PA,status,PR,status,RH,status,SR,status,TA,status,DirAvg,status,SpdAvg,
2011-02-07, 00:00:04,VALID,917.415,VALID,0,VALID,95.9178,VALID,0,VALID,20.1708,VALID,332,VALID,0,
2011-02-07, 00:01:04,VALID,917.407,VALID,0,VALID,96.0169,VALID,0,VALID,20.2489,VALID,332,VALID,0.251172,
2011-02-07, 00:02:04,VALID,917.38,VALID,0,VALID,96.0703,VALID,0,VALID,20.2684,VALID,332,VALID,0,
2011-02-07, 00:03:04,VALID,917.366,VALID,0,VALID,96.0932,VALID,0,VALID,20.2879,VALID,332,VALID,0,
2011-02-07, 00:04:04,VALID,917.357,VALID,0,VALID,96.1389,VALID,0,VALID,20.3464,VALID,332,VALID,0.107422,
2011-02-07, 00:05:04,VALID,917.322,VALID,0,VALID,96.1618,VALID,0,VALID,20.3659,VALID,332,VALID,0.0121094,
2011-02-07, 00:06:04,VALID,917.324,VALID,0,VALID,96.0779,VALID,0,VALID,20.3854,VALID,332,VALID,0.14375,
2011-02-07, 00:07:04,VALID,917.287,VALID,0,VALID,96.116,VALID,0,VALID,20.4049,VALID,332,VALID,0,
2011-02-07, 00:08:04,VALID,917.279,VALID,0,VALID,96.0245,VALID,0,VALID,20.4244,VALID,332,VALID,0.00078125,
2011-02-07, 00:09:04,VALID,917.296,VALID,0,VALID,95.7577,VALID,0,VALID,20.3448,VALID,332,VALID,0,
2011-02-07, 00:10:04,VALID,917.302,VALID,0,VALID,95.5595,VALID,0,VALID,20.3058,VALID,332,VALID,0,
2011-02-07, 00:11:04,VALID,917.317,VALID,0,VALID,95.4909,VALID,0,VALID,20.3074,VALID,332,VALID,0,
2011-02-07, 00:12:04,VALID,917.302,VALID,0,VALID,95.3918,VALID,0,VALID,20.2879,VALID,332,VALID,0,
2011-02-07, 00:13:04,VALID,917.307,VALID,0,VALID,95.1631,VALID,0,VALID,20.2489,VALID,332,VALID,0,
2011-02-07, 00:14:04,VALID,917.303,VALID,0,VALID,95.1326,VALID,0,VALID,20.2083,VALID,332,VALID,0,
2011-02-07, 00:15:04,VALID,917.309,VALID,0,VALID,95.2165,VALID,0,VALID,20.2489,VALID,332,VALID,0,
2011-02-07, 00:16:04,VALID,917.279,VALID,0,VALID,95.0869,VALID,0,VALID,20.2293,VALID,332,VALID,0,
2011-02-07, 00:17:04,VALID,917.273,VALID,0,VALID,95.064,VALID,0,VALID,20.1903,VALID,332,VALID,0.0117188,
2011-02-07, 00:18:04,VALID,917.275,VALID,0,VALID,95.3461,VALID,0,VALID,20.2684,VALID,332,VALID,0.307031,
2011-02-07, 00:19:04,VALID,917.258,VALID,0,VALID,95.4833,VALID,0,VALID,20.2879,VALID,332,VALID,0.289453,
2011-02-07, 00:20:04,VALID,917.25,VALID,0,VALID,95.4604,VALID,0,VALID,20.2668,VALID,332,VALID,0.540234,
2011-02-07, 00:21:04,VALID,917.23,VALID,0,VALID,95.3766,VALID,0,VALID,20.3074,VALID,332,VALID,0,
2011-02-07, 00:22:04,VALID,917.229,VALID,0,VALID,95.247,VALID,0,VALID,20.3253,VALID,332,VALID,0.166406,
2011-02-07, 00:23:04,VALID,917.264,VALID,0,VALID,95.1402,VALID,0,VALID,20.3253,VALID,332,VALID,0,
2011-02-07, 00:24:04,VALID,917.26,VALID,0,VALID,94.8505,VALID,0,VALID,20.3269,VALID,332,VALID,0,
2011-02-07, 00:25:04,VALID,917.243,VALID,0,VALID,94.4846,VALID,0,VALID,20.2668,VALID,332,VALID,0,
2011-02-07, 00:26:04,VALID,917.229,VALID,0,VALID,94.3855,VALID,0,VALID,20.2879,VALID,332,VALID,0,
2011-02-07, 00:27:04,VALID,917.254,VALID,0,VALID,94.1416,VALID,0,VALID,20.2489,VALID,332,VALID,0,
2011-02-07, 00:28:04,VALID,917.216,VALID,0,VALID,93.2877,VALID,0,VALID,20.1513,VALID,332,VALID,0.282031,
2011-02-07, 00:29:04,VALID,917.221,VALID,0,VALID,92.9294,VALID,0,VALID,20.0733,VALID,332,VALID,0.442578,
2011-02-07, 00:30:04,VALID,917.181,VALID,0,VALID,93.2801,VALID,0,VALID,19.9563,VALID,332,VALID,0.3,
2011-02-07, 00:31:04,VALID,917.178,VALID,0,VALID,93.9815,VALID,0,VALID,19.8978,VALID,332,VALID,0.382422,
2011-02-07, 00:32:04,VALID,917.177,VALID,0,VALID,94.6218,VALID,0,VALID,19.8963,VALID,332,VALID,0.232031,
2011-02-07, 00:33:04,VALID,917.158,VALID,0,VALID,94.9725,VALID,0,VALID,19.8768,VALID,332,VALID,0.132031,
2011-02-07, 00:34:04,VALID,917.121,VALID,0,VALID,95.1479,VALID,0,VALID,19.8378,VALID,332,VALID,0,
2011-02-07, 00:35:04,VALID,917.114,VALID,0,VALID,95.2775,VALID,0,VALID,19.8183,VALID,332,VALID,0,
2011-02-07, 00:36:04,VALID,917.091,VALID,0,VALID,95.3766,VALID,0,VALID,19.8393,VALID,332,VALID,0,
2011-02-07, 00:37:04,VALID,917.07,VALID,0,VALID,95.3308,VALID,0,VALID,19.7598,VALID,332,VALID,0,
2011-02-07, 00:38:04,VALID,917.038,VALID,0,VALID,95.2241,VALID,0,VALID,19.7013,VALID,332,VALID,0,
2011-02-07, 00:39:04,VALID,917.074,VALID,0,VALID,95.2012,VALID,0.107441,VALID,19.6608,VALID,332,VALID,0,
2011-02-07, 00:40:04,VALID,917.031,VALID,0,VALID,95.2851,VALID,0,VALID,19.6833,VALID,332,VALID,0,
2011-02-07, 00:41:04,VALID,917.027,VALID,0,VALID,95.2927,VALID,0,VALID,19.6428,VALID,332,VALID,0,
2011-02-07, 00:42:04,VALID,917.02,VALID,0,VALID,95.2546,VALID,0,VALID,19.6233,VALID,332,VALID,0.326953,
2011-02-07, 00:43:04,VALID,917.009,VALID,0,VALID,95.2927,VALID,0,VALID,19.6053,VALID,332,VALID,0.239844,
2011-02-07, 00:44:04,VALID,917.006,VALID,0,VALID,95.3308,VALID,0,VALID,19.6053,VALID,332,VALID,0.192969,
2011-02-07, 00:45:04,VALID,916.98,VALID,0,VALID,95.4909,VALID,0,VALID,19.6053,VALID,332,VALID,0.0398437,
2011-02-07, 00:46:04,VALID,916.942,VALID,0,VALID,95.4833,VALID,0,VALID,19.6053,VALID,332,VALID,0,
2011-02-07, 00:47:04,VALID,916.928,VALID,0,VALID,95.5062,VALID,0,VALID,19.5858,VALID,332,VALID,0,
2011-02-07, 00:48:04,VALID,916.944,VALID,0,VALID,95.59,VALID,0,VALID,19.5858,VALID,332,VALID,0,
2011-02-07, 00:49:04,VALID,916.928,VALID,0,VALID,95.5595,VALID,0,VALID,19.5663,VALID,332,VALID,0,
2011-02-07, 00:50:04,VALID,916.893,VALID,0,VALID,95.5443,VALID,0,VALID,19.5468,VALID,332,VALID,0.291016,
2011-02-07, 00:51:04,VALID,916.888,VALID,0,VALID,95.6129,VALID,0,VALID,19.5258,VALID,332,VALID,0.253125,
2011-02-07, 00:52:04,VALID,916.882,VALID,0,VALID,95.651,VALID,0,VALID,19.5453,VALID,332,VALID,0.328125,
2011-02-07, 00:53:04,VALID,916.896,VALID,0,VALID,95.651,VALID,0,VALID,19.5273,VALID,332,VALID,0.308594,
2011-02-07, 00:54:04,VALID,916.876,VALID,0,VALID,95.5519,VALID,0,VALID,19.4688,VALID,332,VALID,0.260156,
2011-02-07, 00:55:04,VALID,916.855,VALID,0,VALID,95.4604,VALID,0,VALID,19.4103,VALID,332,VALID,0.249609,
2011-02-07, 00:56:04,VALID,916.857,VALID,0,VALID,95.3994,VALID,0,VALID,19.3908,VALID,332,VALID,0.556641,
2011-02-07, 00:57:04,VALID,916.851,VALID,0,VALID,95.4757,VALID,0,VALID,19.3713,VALID,332,VALID,0.703125,
2011-02-07, 00:58:04,VALID,916.854,VALID,0,VALID,95.7349,VALID,0,VALID,19.4103,VALID,332,VALID,0.596875,
2011-02-07, 00:59:04,VALID,916.85,VALID,0,VALID,95.8035,VALID,0,VALID,19.4103,VALID,332,VALID,0.457031,
2011-02-07, 01:00:04,VALID,916.863,VALID,0,VALID,95.8492,VALID,0,VALID,19.3713,VALID,332,VALID,0.455078,
2011-02-07, 01:01:04,VALID,916.854,VALID,0,VALID,95.8721,VALID,0,VALID,19.3323,VALID,332,VALID,0.516016,
2011-02-07, 01:02:04,VALID,916.843,VALID,0,VALID,95.8797,VALID,0,VALID,19.2738,VALID,332,VALID,0.391797,
2011-02-07, 01:03:04,VALID,916.852,VALID,0,VALID,95.9483,VALID,0,VALID,19.2723,VALID,332,VALID,0.335547,
2011-02-07, 01:04:04,VALID,916.844,VALID,0,VALID,95.9788,VALID,0,VALID,19.2543,VALID,332,VALID,0.240625,
2011-02-07, 01:05:04,VALID,916.836,VALID,0,VALID,96.0398,VALID,0.107441,VALID,19.2348,VALID,332,VALID,0.00117188,
2011-02-07, 01:06:04,VALID,916.803,VALID,0,VALID,96.1465,VALID,0,VALID,19.2543,VALID,332,VALID,0.0761719,
2011-02-07, 01:07:04,VALID,916.783,VALID,0,VALID,96.055,VALID,0,VALID,19.2558,VALID,332,VALID,0,
2011-02-07, 01:08:04,VALID,916.801,VALID,0,VALID,96.0932,VALID,0,VALID,19.1958,VALID,332,VALID,0.0359375,
2011-02-07, 01:09:04,VALID,916.779,VALID,0,VALID,96.2456,VALID,0,VALID,19.2153,VALID,332,VALID,0.216797,
2011-02-07, 01:10:04,VALID,916.797,VALID,0,VALID,96.3371,VALID,0,VALID,19.2543,VALID,332,VALID,0.251953,
2011-02-07, 01:11:04,VALID,916.754,VALID,0,VALID,96.421,VALID,0,VALID,19.2738,VALID,332,VALID,0,
2011-02-07, 01:12:04,VALID,916.73,VALID,0,VALID,96.4667,VALID,0,VALID,19.2933,VALID,332,VALID,0.358984,
2011-02-07, 01:13:04,VALID,916.745,VALID,0,VALID,96.5277,VALID,0,VALID,19.3533,VALID,332,VALID,0.115625,
2011-02-07, 01:14:04,VALID,916.715,VALID,0,VALID,96.5353,VALID,0,VALID,19.3323,VALID,332,VALID,0,
2011-02-07, 01:15:04,VALID,916.709,VALID,0,VALID,96.5734,VALID,0,VALID,19.3323,VALID,332,VALID,0.378516,
2011-02-07, 01:16:04,VALID,916.711,VALID,0,VALID,96.6268,VALID,0,VALID,19.3713,VALID,332,VALID,0.285937,
2011-02-07, 01:17:04,VALID,916.7,VALID,0,VALID,96.6725,VALID,0,VALID,19.4103,VALID,332,VALID,0.109766,
2011-02-07, 01:18:04,VALID,916.72,VALID,0,VALID,96.7488,VALID,0,VALID,19.4898,VALID,332,VALID,0.345703,
2011-02-07, 01:19:04,VALID,916.692,VALID,0,VALID,96.8174,VALID,0,VALID,19.5468,VALID,332,VALID,0.225781,
2011-02-07, 01:20:04,VALID,916.666,VALID,0,VALID,96.8326,VALID,0,VALID,19.6068,VALID,332,VALID,0.494922,
2011-02-07, 01:21:04,VALID,916.657,VALID,0,VALID,96.8403,VALID,0,VALID,19.6053,VALID,332,VALID,0.26875,
2011-02-07, 01:22:04,VALID,916.604,VALID,0,VALID,96.8631,VALID,0,VALID,19.6653,VALID,332,VALID,0.283203,
2011-02-07, 01:23:04,VALID,916.637,VALID,0,VALID,96.8555,VALID,0,VALID,19.6638,VALID,332,VALID,0.108594,
2011-02-07, 01:24:04,VALID,916.648,VALID,0,VALID,96.8631,VALID,0,VALID,19.7238,VALID,332,VALID,0,
2011-02-07, 01:25:04,VALID,916.632,VALID,0,VALID,96.8631,VALID,0,VALID,19.7013,VALID,332,VALID,0,
2011-02-07, 01:26:04,VALID,916.664,VALID,0,VALID,96.7945,VALID,0,VALID,19.6848,VALID,332,VALID,0,
2011-02-07, 01:27:04,VALID,916.678,VALID,0,VALID,96.7488,VALID,0,VALID,19.6443,VALID,332,VALID,0,
2011-02-07, 01:28:04,VALID,916.664,VALID,0,VALID,96.7107,VALID,0,VALID,19.5453,VALID,332,VALID,0,
2011-02-07, 01:29:04,VALID,916.659,VALID,0,VALID,96.7716,VALID,0,VALID,19.5468,VALID,332,VALID,0,
2011-02-07, 01:30:04,VALID,916.653,VALID,0,VALID,96.8326,VALID,0,VALID,19.5468,VALID,332,VALID,0,
2011-02-07, 01:31:04,VALID,916.624,VALID,0,VALID,96.8707,VALID,0,VALID,19.5663,VALID,332,VALID,0,
2011-02-07, 01:32:04,VALID,916.604,VALID,0,VALID,96.8936,VALID,0,VALID,19.5858,VALID,332,VALID,0,
2011-02-07, 01:33:04,VALID,916.588,VALID,0,VALID,96.9165,VALID,0,VALID,19.6263,VALID,332,VALID,0,
2011-02-07, 01:34:04,VALID,916.576,VALID,0,VALID,96.9089,VALID,0,VALID,19.6458,VALID,332,VALID,0,
2011-02-07, 01:35:04,VALID,916.576,VALID,0,VALID,96.8555,VALID,0,VALID,19.5873,VALID,332,VALID,0,
2011-02-07, 01:36:04,VALID,916.563,VALID,0,VALID,96.8326,VALID,0,VALID,19.5468,VALID,332,VALID,0,
2011-02-07, 01:37:04,VALID,916.531,VALID,0,VALID,96.7564,VALID,0,VALID,19.4688,VALID,332,VALID,0,
2011-02-07, 01:38:04,VALID,916.497,VALID,0,VALID,96.7335,VALID,0,VALID,19.4103,VALID,332,VALID,0,
2011-02-07, 01:39:04,VALID,916.503,VALID,0,VALID,96.6725,VALID,0,VALID,19.3128,VALID,332,VALID,0,
2011-02-07, 01:40:04,VALID,916.488,VALID,0,VALID,96.6192,VALID,0,VALID,19.1958,VALID,332,VALID,0,
2011-02-07, 01:41:04,VALID,916.437,VALID,0,VALID,96.7488,VALID,0,VALID,19.1958,VALID,332,VALID,0,
2011-02-07, 01:42:04,VALID,916.473,VALID,0,VALID,96.7564,VALID,0,VALID,19.1568,VALID,332,VALID,0,
2011-02-07, 01:43:04,VALID,916.458,VALID,0,VALID,96.7564,VALID,0,VALID,19.1373,VALID,332,VALID,0,
2011-02-07, 01:44:04,VALID,916.383,VALID,0,VALID,96.8098,VALID,0,VALID,19.0983,VALID,332,VALID,0,
2011-02-07, 01:45:04,VALID,916.372,VALID,0,VALID,96.825,VALID,0,VALID,19.0788,VALID,332,VALID,0,
2011-02-07, 01:46:04,VALID,916.385,VALID,0,VALID,96.8555,VALID,0,VALID,19.0384,VALID,332,VALID,0,
2011-02-07, 01:47:04,VALID,916.373,VALID,0,VALID,96.8784,VALID,0.107441,VALID,19.0788,VALID,332,VALID,0,
2011-02-07, 01:48:04,VALID,916.381,VALID,0,VALID,96.947,VALID,0,VALID,19.0774,VALID,332,VALID,0,
2011-02-07, 01:49:04,VALID,916.384,VALID,0,VALID,97.0003,VALID,0.107441,VALID,19.1359,VALID,332,VALID,0,
2011-02-07, 01:50:04,VALID,916.434,VALID,0,VALID,97.069,VALID,0.107441,VALID,19.1749,VALID,332,VALID,0,
2011-02-07, 01:51:04,VALID,916.402,VALID,0,VALID,97.069,VALID,0,VALID,19.2139,VALID,332,VALID,0,
2011-02-07, 01:52:04,VALID,916.363,VALID,0,VALID,97.0766,VALID,0,VALID,19.2528,VALID,332,VALID,0,
2011-02-07, 01:53:04,VALID,916.351,VALID,0,VALID,97.0994,VALID,0.107441,VALID,19.3128,VALID,332,VALID,0,
2011-02-07, 01:54:04,VALID,916.337,VALID,0,VALID,97.1071,VALID,0.107441,VALID,19.3308,VALID,332,VALID,0,
2011-02-07, 01:55:04,VALID,916.301,VALID,0,VALID,97.1528,VALID,0.107441,VALID,19.3893,VALID,332,VALID,0,
2011-02-07, 01:56:04,VALID,916.263,VALID,0,VALID,97.1528,VALID,0,VALID,19.4283,VALID,332,VALID,0,
2011-02-07, 01:57:04,VALID,916.269,VALID,0,VALID,97.0994,VALID,0,VALID,19.4283,VALID,332,VALID,0,
2011-02-07, 01:58:04,VALID,916.249,VALID,0,VALID,97.0918,VALID,0.107441,VALID,19.4673,VALID,332,VALID,0,
2011-02-07, 01:59:04,VALID,916.205,VALID,0,VALID,97.1528,VALID,0,VALID,19.4868,VALID,332,VALID,0,
2011-02-07, 02:00:04,VALID,916.232,VALID,0,VALID,97.1452,VALID,0,VALID,19.5258,VALID,332,VALID,0,
2011-02-07, 02:01:04,VALID,916.233,VALID,0,VALID,97.1452,VALID,0.107441,VALID,19.5648,VALID,332,VALID,0,
2011-02-07, 02:02:04,VALID,916.223,VALID,0,VALID,97.1299,VALID,0,VALID,19.5858,VALID,332,VALID,0,
2011-02-07, 02:03:04,VALID,916.19,VALID,0,VALID,97.1147,VALID,0,VALID,19.6053,VALID,332,VALID,0,
2011-02-07, 02:04:04,VALID,916.214,VALID,0,VALID,97.0766,VALID,0,VALID,19.5858,VALID,332,VALID,0,
2011-02-07, 02:05:04,VALID,916.19,VALID,0,VALID,97.0232,VALID,0,VALID,19.5273,VALID,332,VALID,0,
2011-02-07, 02:06:04,VALID,916.195,VALID,0,VALID,97.0537,VALID,0,VALID,19.5273,VALID,332,VALID,0,
2011-02-07, 02:07:04,VALID,916.166,VALID,0,VALID,97.0156,VALID,0,VALID,19.4883,VALID,332,VALID,0,
2011-02-07, 02:08:04,VALID,916.183,VALID,0,VALID,97.0994,VALID,0,VALID,19.4883,VALID,332,VALID,0,
2011-02-07, 02:09:04,VALID,916.154,VALID,0,VALID,97.1376,VALID,0,VALID,19.5273,VALID,332,VALID,0,
2011-02-07, 02:10:04,VALID,916.179,VALID,0,VALID,97.1528,VALID,0,VALID,19.5468,VALID,332,VALID,0,
2011-02-07, 02:11:04,VALID,916.166,VALID,0,VALID,97.0842,VALID,0,VALID,19.5273,VALID,332,VALID,0,
2011-02-07, 02:12:04,VALID,916.155,VALID,0,VALID,97.0461,VALID,0,VALID,19.5078,VALID,332,VALID,0,
2011-02-07, 02:13:04,VALID,916.154,VALID,0,VALID,97.0842,VALID,0,VALID,19.5078,VALID,332,VALID,0,
2011-02-07, 02:14:04,VALID,916.161,VALID,0,VALID,97.1147,VALID,0,VALID,19.5078,VALID,332,VALID,0.230859,
2011-02-07, 02:15:04,VALID,916.129,VALID,0,VALID,97.1223,VALID,0,VALID,19.4868,VALID,332,VALID,0.166406,
2011-02-07, 02:16:04,VALID,916.137,VALID,0,VALID,97.1376,VALID,0,VALID,19.5273,VALID,332,VALID,0.193359,
2011-02-07, 02:17:04,VALID,916.143,VALID,0,VALID,97.1376,VALID,0,VALID,19.5273,VALID,332,VALID,0,
2011-02-07, 02:18:04,VALID,916.146,VALID,0,VALID,97.1299,VALID,0,VALID,19.5273,VALID,332,VALID,0,
2011-02-07, 02:19:04,VALID,916.167,VALID,0,VALID,97.1757,VALID,0,VALID,19.5468,VALID,332,VALID,0,
2011-02-07, 02:20:04,VALID,916.152,VALID,0,VALID,97.1528,VALID,0,VALID,19.5468,VALID,332,VALID,0,
2011-02-07, 02:21:04,VALID,916.126,VALID,0,VALID,97.2138,VALID,0,VALID,19.5858,VALID,332,VALID,0.0132813,
2011-02-07, 02:22:04,VALID,916.121,VALID,0,VALID,97.2062,VALID,0,VALID,19.6053,VALID,332,VALID,0.0351563,
2011-02-07, 02:23:04,VALID,916.083,VALID,0,VALID,97.2062,VALID,0,VALID,19.6443,VALID,332,VALID,0.344141,
2011-02-07, 02:24:04,VALID,916.093,VALID,0,VALID,97.1833,VALID,0,VALID,19.6443,VALID,332,VALID,0.377344,
2011-02-07, 02:25:04,VALID,916.094,VALID,0,VALID,97.1909,VALID,0,VALID,19.6443,VALID,332,VALID,0.244531,
2011-02-07, 02:26:04,VALID,916.08,VALID,0,VALID,97.1681,VALID,0,VALID,19.6653,VALID,332,VALID,0.214062,
2011-02-07, 02:27:04,VALID,916.091,VALID,0,VALID,97.2062,VALID,0,VALID,19.6638,VALID,332,VALID,0,
2011-02-07, 02:28:04,VALID,916.033,VALID,0,VALID,97.2062,VALID,0,VALID,19.6833,VALID,332,VALID,0,
2011-02-07, 02:29:04,VALID,916.018,VALID,0,VALID,97.1681,VALID,0,VALID,19.7043,VALID,332,VALID,0.296875,
2011-02-07, 02:30:04,VALID,916.006,VALID,0,VALID,97.1833,VALID,0,VALID,19.7028,VALID,332,VALID,0.376172,
2011-02-07, 02:31:04,VALID,915.987,VALID,0,VALID,97.1604,VALID,0,VALID,19.6833,VALID,332,VALID,0.535156,
2011-02-07, 02:32:04,VALID,915.988,VALID,0,VALID,97.0842,VALID,0,VALID,19.6848,VALID,332,VALID,0.469531,
2011-02-07, 02:33:04,VALID,915.948,VALID,0,VALID,97.0766,VALID,0,VALID,19.6458,VALID,332,VALID,0.191797,
2011-02-07, 02:34:04,VALID,915.964,VALID,0,VALID,97.1452,VALID,0,VALID,19.6248,VALID,332,VALID,0.40625,
2011-02-07, 02:35:04,VALID,915.975,VALID,0,VALID,97.1376,VALID,0,VALID,19.6248,VALID,332,VALID,0.324219,
2011-02-07, 02:36:04,VALID,915.958,VALID,0,VALID,97.2138,VALID,0,VALID,19.6443,VALID,332,VALID,0.487891,
2011-02-07, 02:37:04,VALID,915.94,VALID,0,VALID,97.1986,VALID,0,VALID,19.6833,VALID,332,VALID,0.378516,
2011-02-07, 02:38:04,VALID,915.927,VALID,0,VALID,97.1604,VALID,0,VALID,19.6848,VALID,332,VALID,0.536719,
2011-02-07, 02:39:04,VALID,915.919,VALID,0,VALID,97.1452,VALID,0,VALID,19.6443,VALID,332,VALID,0.478125,
2011-02-07, 02:40:04,VALID,915.918,VALID,0,VALID,97.1528,VALID,0,VALID,19.6638,VALID,332,VALID,0.547266,
2011-02-07, 02:41:04,VALID,915.931,VALID,0,VALID,97.1452,VALID,0,VALID,19.6443,VALID,332,VALID,0.597656,
2011-02-07, 02:42:04,VALID,915.927,VALID,0,VALID,97.1528,VALID,0,VALID,19.6248,VALID,332,VALID,0.582031,
2011-02-07, 02:43:04,VALID,915.94,VALID,0,VALID,97.1452,VALID,0,VALID,19.6248,VALID,332,VALID,0.575,
2011-02-07, 02:44:04,VALID,915.939,VALID,0,VALID,97.1604,VALID,0,VALID,19.6263,VALID,332,VALID,0.575,
2011-02-07, 02:45:04,VALID,915.956,VALID,0,VALID,97.1757,VALID,0,VALID,19.6248,VALID,332,VALID,0.726953,
2011-02-07, 02:46:04,VALID,915.951,VALID,0,VALID,97.2367,VALID,0,VALID,19.6248,VALID,332,VALID,0.772266,
2011-02-07, 02:47:04,VALID,915.949,VALID,0,VALID,97.2062,VALID,0,VALID,19.6458,VALID,332,VALID,0.532422,
2011-02-07, 02:48:04,VALID,915.95,VALID,0,VALID,97.1681,VALID,0,VALID,19.6248,VALID,332,VALID,0.691016,
2011-02-07, 02:49:04,VALID,915.933,VALID,0,VALID,97.1299,VALID,0,VALID,19.6068,VALID,332,VALID,0.749609,
2011-02-07, 02:50:04,VALID,915.913,VALID,0,VALID,97.1604,VALID,0,VALID,19.5858,VALID,332,VALID,0.530469,
2011-02-07, 02:51:04,VALID,915.914,VALID,0,VALID,97.1681,VALID,0,VALID,19.5663,VALID,332,VALID,0.453906,
2011-02-07, 02:52:04,VALID,915.877,VALID,0,VALID,97.1986,VALID,0,VALID,19.6068,VALID,332,VALID,0.614453,
2011-02-07, 02:53:04,VALID,915.879,VALID,0,VALID,97.2062,VALID,0,VALID,19.5663,VALID,332,VALID,0.508203,
2011-02-07, 02:54:04,VALID,915.867,VALID,0,VALID,97.2367,VALID,0,VALID,19.6053,VALID,332,VALID,0.624219,
2011-02-07, 02:55:04,VALID,915.9,VALID,0,VALID,97.1986,VALID,0,VALID,19.6248,VALID,332,VALID,0.509766,
2011-02-07, 02:56:04,VALID,915.853,VALID,0,VALID,97.1833,VALID,0,VALID,19.6068,VALID,332,VALID,0.539844,
2011-02-07, 02:57:04,VALID,915.867,VALID,0,VALID,97.1604,VALID,0,VALID,19.5873,VALID,332,VALID,0.510938,
2011-02-07, 02:58:04,VALID,915.867,VALID,0,VALID,97.1681,VALID,0,VALID,19.5468,VALID,332,VALID,0.636719,
2011-02-07, 02:59:04,VALID,915.87,VALID,0,VALID,97.2062,VALID,0,VALID,19.5273,VALID,332,VALID,0.664844,
2011-02-07, 03:00:04,VALID,915.892,VALID,0,VALID,97.2138,VALID,0,VALID,19.5483,VALID,332,VALID,0.447266,
2011-02-07, 03:01:04,VALID,915.883,VALID,0,VALID,97.2062,VALID,0,VALID,19.5273,VALID,332,VALID,0.198437,
2011-02-07, 03:02:04,VALID,915.866,VALID,0,VALID,97.2519,VALID,0,VALID,19.5678,VALID,332,VALID,0.158203,
2011-02-07, 03:03:04,VALID,915.834,VALID,0,VALID,97.2367,VALID,0,VALID,19.6068,VALID,332,VALID,0,
2011-02-07, 03:04:04,VALID,915.819,VALID,0,VALID,97.2595,VALID,0,VALID,19.6053,VALID,332,VALID,0,
2011-02-07, 03:05:04,VALID,915.826,VALID,0,VALID,97.229,VALID,0,VALID,19.6443,VALID,332,VALID,0.216016,
2011-02-07, 03:06:04,VALID,915.776,VALID,0,VALID,97.2367,VALID,0,VALID,19.6053,VALID,332,VALID,0.325781,
2011-02-07, 03:07:04,VALID,915.771,VALID,0,VALID,97.2214,VALID,0,VALID,19.5843,VALID,332,VALID,0.524609,
2011-02-07, 03:08:04,VALID,915.74,VALID,0,VALID,97.2443,VALID,0,VALID,19.6053,VALID,332,VALID,0.280078,
2011-02-07, 03:09:04,VALID,915.715,VALID,0,VALID,97.2367,VALID,0,VALID,19.6248,VALID,332,VALID,0.167578,
2011-02-07, 03:10:04,VALID,915.709,VALID,0,VALID,97.2138,VALID,0,VALID,19.6038,VALID,332,VALID,0.00234375,
2011-02-07, 03:11:04,VALID,915.689,VALID,0,VALID,97.2367,VALID,0,VALID,19.6053,VALID,332,VALID,0,
2011-02-07, 03:12:04,VALID,915.683,VALID,0,VALID,97.2443,VALID,0,VALID,19.6458,VALID,332,VALID,0,
2011-02-07, 03:13:04,VALID,915.648,VALID,0,VALID,97.2367,VALID,0,VALID,19.6248,VALID,332,VALID,0,
2011-02-07, 03:14:04,VALID,915.616,VALID,0,VALID,97.229,VALID,0,VALID,19.7103,VALID,332,VALID,0.404297,
2011-02-07, 03:15:04,VALID,915.601,VALID,0,VALID,97.2138,VALID,0,VALID,19.5663,VALID,332,VALID,0.330859,
2011-02-07, 03:16:04,VALID,915.561,VALID,0,VALID,97.2138,VALID,0,VALID,19.5483,VALID,332,VALID,0.644922,
2011-02-07, 03:17:04,VALID,915.555,VALID,0,VALID,97.1833,VALID,0,VALID,19.4883,VALID,332,VALID,0.741406,
2011-02-07, 03:18:04,VALID,915.572,VALID,0,VALID,97.2214,VALID,0,VALID,19.4688,VALID,332,VALID,0.164453,
2011-02-07, 03:19:04,VALID,915.514,VALID,0,VALID,97.2214,VALID,0,VALID,19.4493,VALID,332,VALID,0.355859,
2011-02-07, 03:20:04,VALID,915.558,VALID,0,VALID,97.2138,VALID,0,VALID,19.4103,VALID,332,VALID,0.253906,
2011-02-07, 03:21:04,VALID,915.543,VALID,0,VALID,97.2214,VALID,0,VALID,19.3713,VALID,332,VALID,0.0164062,
2011-02-07, 03:22:04,VALID,915.513,VALID,0,VALID,97.229,VALID,0,VALID,19.3518,VALID,332,VALID,0.262109,
2011-02-07, 03:23:04,VALID,915.49,VALID,0,VALID,97.2214,VALID,0,VALID,19.3323,VALID,332,VALID,0.392578,
2011-02-07, 03:24:04,VALID,915.459,VALID,0,VALID,97.2519,VALID,0,VALID,19.3323,VALID,332,VALID,0.245703,
2011-02-07, 03:25:04,VALID,915.446,VALID,0,VALID,97.2595,VALID,0,VALID,19.3128,VALID,332,VALID,0.123828,
2011-02-07, 03:26:04,VALID,915.413,VALID,0,VALID,97.2443,VALID,0,VALID,19.2738,VALID,332,VALID,0.458984,
2011-02-07, 03:27:04,VALID,915.381,VALID,0,VALID,97.2062,VALID,0,VALID,19.2348,VALID,332,VALID,0.28125,
2011-02-07, 03:28:04,VALID,915.364,VALID,0,VALID,97.2062,VALID,0,VALID,19.2153,VALID,332,VALID,0.54375,
2011-02-07, 03:29:04,VALID,915.363,VALID,0,VALID,97.2443,VALID,0,VALID,19.1763,VALID,332,VALID,0.231641,
2011-02-07, 03:30:04,VALID,915.32,VALID,0,VALID,97.2367,VALID,0,VALID,19.1568,VALID,332,VALID,0.247656,
2011-02-07, 03:31:04,VALID,915.307,VALID,0,VALID,97.2367,VALID,0,VALID,19.1178,VALID,332,VALID,0.125781,
2011-02-07, 03:32:04,VALID,915.297,VALID,0,VALID,97.2595,VALID,0,VALID,19.1193,VALID,332,VALID,0.298047,
2011-02-07, 03:33:04,VALID,915.278,VALID,0,VALID,97.2595,VALID,0,VALID,19.0788,VALID,332,VALID,0.198047,
2011-02-07, 03:34:04,VALID,915.283,VALID,0,VALID,97.2977,VALID,0,VALID,19.0593,VALID,332,VALID,0.237891,
2011-02-07, 03:35:04,VALID,915.286,VALID,0,VALID,97.2977,VALID,0,VALID,19.0593,VALID,332,VALID,0.303125,
2011-02-07, 03:36:04,VALID,915.247,VALID,0,VALID,97.2977,VALID,0,VALID,19.0608,VALID,332,VALID,0.36875,
2011-02-07, 03:37:04,VALID,915.279,VALID,0,VALID,97.2977,VALID,0,VALID,19.0189,VALID,332,VALID,0.260547,
2011-02-07, 03:38:04,VALID,915.305,VALID,0,VALID,97.3434,VALID,0,VALID,19.0203,VALID,332,VALID,0,
2011-02-07, 03:39:04,VALID,915.292,VALID,0,VALID,97.2824,VALID,0,VALID,19.0203,VALID,332,VALID,0,
2011-02-07, 03:40:04,VALID,915.289,VALID,0,VALID,97.2748,VALID,0,VALID,18.959,VALID,332,VALID,0,
2011-02-07, 03:41:04,VALID,915.313,VALID,0,VALID,97.2519,VALID,0,VALID,18.9424,VALID,332,VALID,0.376953,
2011-02-07, 03:42:04,VALID,915.334,VALID,0,VALID,97.229,VALID,0,VALID,18.8839,VALID,332,VALID,0.636328,
2011-02-07, 03:43:04,VALID,915.334,VALID,0,VALID,97.1909,VALID,0,VALID,18.8449,VALID,332,VALID,0.350781,
2011-02-07, 03:44:04,VALID,915.329,VALID,0,VALID,97.0842,VALID,0,VALID,18.7488,VALID,332,VALID,0.302344,
2011-02-07, 03:45:04,VALID,915.356,VALID,0,VALID,97.0994,VALID,0,VALID,18.6109,VALID,332,VALID,0.128516,
2011-02-07, 03:46:04,VALID,915.346,VALID,0,VALID,97.1986,VALID,0,VALID,18.5914,VALID,332,VALID,0,
2011-02-07, 03:47:04,VALID,915.34,VALID,0,VALID,97.2672,VALID,0.107441,VALID,18.5705,VALID,332,VALID,0,
2011-02-07, 03:48:04,VALID,915.323,VALID,0,VALID,97.3053,VALID,0,VALID,18.5691,VALID,332,VALID,0,
2011-02-07, 03:49:04,VALID,915.328,VALID,0,VALID,97.351,VALID,0.107441,VALID,18.59,VALID,332,VALID,0.110547,